ECHOSTAR 23

导读

EchoStar 23是一颗由美国EchoStar公司运营的通信卫星,于2017年3月16日从卡纳维拉尔角发射。它由Space Systems Loral建造,采用SSL 1300S平台,发射重量达5500千克,定位于西经67.9°地球静止轨道,设计寿命15年。该卫星主要为巴西地区提供高性能卫星通信和广播服务,增强了南美区域的通信覆盖能力,目前仍在正常服役中。

基本信息
目录编号:
42070
目录名称:
ECHOSTAR 23
国际标识:
2017-014A
轨道中心:
EARTH
卫星名称:
ECHOSTAR 23
卫星全名:
--
卫星状态:
在轨 (已飞行3466 天)
发射日期:
2017-03-16 UTC
国别 :
美国 (US)
星等 :
--
该卫星已列入 空间交会检测服务 Space Conjunction Data Service (SCDS) ,当前飞行风险评估等级: 无高风险
轨道信息
数据来源 国际轨道数据 AOE轨道数据
星历时间 2026-09-11T12:46:33+0800
9小时前
查看轨道信息
2026-09-10T16:00:00+0800
1天前
查看轨道信息
半长轴 42165.205km 42164.644km
偏心率 0.0002198 0.0002005
轨道倾角 0.027° 0.020°
近地点辐角 5.777° 19.962°
升交点赤经 155.040° 140.759°
平近点角 151.150° 198.751°
近地点 35777.8km 35778.052km
远地点 35796.336km 35794.962km
周期 1436.121分钟 1436.092分钟
每日圈数 1.002701 1.002721
详细信息
使用方式:
暂无
2D轨道图
3D轨道图
轨道高度分析图
轨道倾角分析图
轨道综合分析图
查看轨道综合分析图
与全量物体交会距离演化趋势
与全量物体交会风险概率演化趋势